Tracking 30923 objects as of 1-Jul-2025
HD Live streaming from Space Station
objects crossing your sky now

OPS 4682 DEB

Track OPS 4682 DEB now!
10-day predictions


NORAD ID: 38386
Int'l Code: 1965-027CP
Perigee: 1,238.5 km
Apogee: 1,291.6 km
Inclination: 90.3 °
Period: 110.7 minutes
Semi major axis: 7636 km
RCS: 0.0112 m2 (small)
Launch date: April 3, 1965
Source: United States (US)
Launch site: AIR FORCE WESTERN TEST RANGE (AFWTR)

Note: This is SATELLITE DEBRIS
Your satellite tracking list
Your tracking list is empty




NASA's NSSDC Master Catalog

Two Line Element Set (TLE):
1 38386U 65027CP  25179.03406942  .00000652  00000-0  21052-2 0  9995
2 38386  90.2711  24.8375 0034748  72.4621 288.0294 13.01066314611610
Source of the keplerian elements: AFSPC